Time,TemperatureF,DewpointF,PressureIn,WindDirection,WindDirectionDegrees,WindSpeedMPH,WindSpeedGustMPH,Humidity,HourlyPrecipIn,Conditions,Clouds,dailyrainin,SoftwareType,DateUTC
2015-08-05 00:02:00,67.1,55.4,29.84,NE,50,0.0,0.0,64,0.00,,---,0.00,cosweather0.1e,2015-08-05 07:02:00,
2015-08-05 00:07:00,66.9,53.6,29.84,NE,39,0.0,2.2,64,0.00,,---,0.00,cosweather0.1e,2015-08-05 07:07:00,
2015-08-05 00:12:00,66.7,53.6,29.84,NE,43,0.0,0.0,64,0.00,,---,0.00,cosweather0.1e,2015-08-05 07:12:00,
2015-08-05 00:17:00,66.6,53.6,29.84,ENE,57,0.0,2.2,65,0.00,,---,0.00,cosweather0.1e,2015-08-05 07:17:00,
2015-08-05 00:22:00,66.2,53.6,29.84,NNE,17,2.2,0.0,65,0.00,,---,0.00,cosweather0.1e,2015-08-05 07:22:00,
2015-08-05 00:27:00,66.0,53.6,29.84,NE,43,0.0,2.7,65,0.00,,---,0.00,cosweather0.1e,2015-08-05 07:27:00,
2015-08-05 00:32:00,65.8,55.4,29.84,NNE,32,2.2,3.1,66,0.00,,---,0.00,cosweather0.1e,2015-08-05 07:32:00,
2015-08-05 00:37:00,65.7,55.4,29.84,NE,42,2.2,2.2,66,0.00,,---,0.00,cosweather0.1e,2015-08-05 07:37:00,
2015-08-05 00:42:00,65.5,55.4,29.84,NNE,30,0.0,2.2,66,0.00,,---,0.00,cosweather0.1e,2015-08-05 07:42:00,
2015-08-05 00:48:00,65.5,55.4,29.84,NNE,32,0.0,2.2,66,0.00,,---,0.00,cosweather0.1e,2015-08-05 07:48:00,
2015-08-05 00:53:00,65.3,55.4,29.84,NE,40,2.2,2.7,66,0.00,,---,0.00,cosweather0.1e,2015-08-05 07:53:00,
2015-08-05 00:58:00,65.3,55.4,29.84,ENE,59,0.0,2.2,66,0.00,,---,0.00,cosweather0.1e,2015-08-05 07:58:00,
2015-08-05 01:03:00,65.1,53.6,29.84,NE,39,2.2,2.7,66,0.00,,---,0.00,cosweather0.1e,2015-08-05 08:03:00,
2015-08-05 01:08:00,64.9,53.6,29.84,NE,45,0.0,0.0,66,0.00,,---,0.00,cosweather0.1e,2015-08-05 08:08:00,
2015-08-05 01:13:00,64.8,53.6,29.84,NNE,24,2.2,2.7,66,0.00,,---,0.00,cosweather0.1e,2015-08-05 08:13:00,
2015-08-05 01:18:00,64.8,53.6,29.84,NNE,33,2.2,2.7,66,0.00,,---,0.00,cosweather0.1e,2015-08-05 08:18:00,
2015-08-05 01:23:00,64.8,53.6,29.84,NE,37,0.0,0.0,66,0.00,,---,0.00,cosweather0.1e,2015-08-05 08:23:00,
2015-08-05 01:28:00,64.6,53.6,29.84,NE,47,0.0,2.2,66,0.00,,---,0.00,cosweather0.1e,2015-08-05 08:28:00,
2015-08-05 01:33:00,64.6,53.6,29.84,NNE,30,0.0,0.0,66,0.00,,---,0.00,cosweather0.1e,2015-08-05 08:33:00,
2015-08-05 01:38:00,64.4,53.6,29.84,NNE,27,0.0,0.0,66,0.00,,---,0.00,cosweather0.1e,2015-08-05 08:38:00,
2015-08-05 01:44:00,64.4,53.6,29.84,NNE,29,2.2,2.7,67,0.00,,---,0.00,cosweather0.1e,2015-08-05 08:44:00,
2015-08-05 01:49:00,64.2,53.6,29.84,NE,53,0.0,0.0,67,0.00,,---,0.00,cosweather0.1e,2015-08-05 08:49:00,